Flag for Germany Weather past 2 weeks in Leipzig, Saxony, Germany

Now
45 °F

Scattered clouds.


Feels Like: 39 °F
Forecast: 32 / 49 °F
Wind: 12 mph from Southwest

Location: Leipzig-Schkeuditz

Current Time: Feb 28, 2015 at 5:01:44 PM

Latest Report: Feb 28, 2015 at 4:20 PM


Visibility: N/A

Pressure: 30.07 "Hg

Humidity: 53%

Dew point: 28 °F

Location of LeipzigLocation

Historic Weather in Leipzig — Graph

°F

Leipzig temperature yesterday

Maximum temperature yesterday: 52 °F (at 2:50 PM)
Minimum temperature yesterday: 28 °F (at 2:20 AM)
Average temperature yesterday: 39 °F

Past Weeks' High & Low Weather Summary

 TemperatureHumidityPressure
High52 °F (Feb 20, 2:20 PM)100% (Feb 14, 7:50 AM)30.74 "Hg (Feb 14, 7:50 AM)
Low25 °F (Feb 15, 1:20 AM)37% (Feb 26, 3:20 PM)29.42 "Hg (Feb 21, 11:50 AM)
Average36 °F83%30.01 "Hg
* Reported Feb 13 3:20 PM — Feb 28 3:50 PM, Leipzig, Weather by CustomWeather, © 2015

Note: Actual official high and low records may vary slightly from our data, if they occured in-between our weather recording intervals... More about our weather records

Advertising

Leipzig weather history for previous 24 hours

 ConditionsComfort  
Time TempWeatherWind HumidityBarometerVisibility
3:50 PM
Sat, Feb 28
45 °FScattered clouds.10 mph53%30.07 "HgN/A
3:20 PM45 °FScattered clouds.10 mph49%30.07 "HgN/A
2:50 PM45 °FScattered clouds.12 mph49%30.07 "HgN/A
2:20 PM45 °FScattered clouds.9 mph53%30.07 "HgN/A
1:50 PM45 °FScattered clouds.9 mph49%30.09 "HgN/A
1:20 PM43 °FScattered clouds.10 mph57%30.09 "HgN/A
12:50 PM41 °FPartly sunny.12 mph61%30.12 "HgN/A
12:20 PM43 °FPartly sunny.10 mph57%30.12 "HgN/A
11:50 AM41 °FPartly sunny.8 mph61%30.12 "HgN/A
11:20 AM39 °FScattered clouds.6 mph65%30.12 "HgN/A
10:50 AM41 °FScattered clouds.6 mph66%30.12 "HgN/A
10:20 AM39 °FPassing clouds.7 mph70%30.12 "HgN/A
9:50 AM39 °FPassing clouds.9 mph75%30.15 "HgN/A
9:20 AM37 °FPassing clouds.8 mph81%30.12 "HgN/A
8:50 AM36 °FScattered clouds.8 mph87%30.12 "HgN/A
8:20 AM34 °FScattered clouds.7 mph93%30.12 "HgN/A
7:50 AM32 °FScattered clouds.8 mph93%30.12 "HgN/A
7:20 AM32 °FBroken clouds.7 mph93%30.12 "HgN/A
6:50 AM32 °FPassing clouds.8 mph93%30.12 "HgN/A
6:20 AM34 °FPartly cloudy.8 mph93%30.09 "HgN/A
5:50 AM36 °FPassing clouds.8 mph93%30.09 "HgN/A
5:20 AM36 °FPassing clouds.9 mph93%30.09 "HgN/A
4:50 AM36 °FPassing clouds.10 mph93%30.09 "HgN/A
4:20 AM36 °FLight rain. Passing clouds.9 mph100%30.07 "HgN/A
3:50 AM37 °FLight rain. Passing clouds.8 mph93%30.07 "HgN/A
3:20 AM37 °FLight rain. Passing clouds.9 mph93%30.07 "HgN/A
2:50 AM37 °FLight rain. Passing clouds.8 mph93%30.07 "HgN/A
2:20 AM37 °FPartly cloudy.9 mph93%30.07 "HgN/A
1:50 AM37 °FPassing clouds.9 mph100%30.07 "HgN/A
1:20 AM37 °FPassing clouds.9 mph93%30.07 "HgN/A
12:50 AM37 °FPassing clouds.8 mph93%30.07 "HgN/A
12:20 AM37 °FLight rain. Passing clouds.10 mph93%30.04 "HgN/A
11:50 PM
Fri, Feb 27
37 °FLight rain. Passing clouds.12 mph100%30.04 "HgN/A
11:20 PM37 °FLight rain. Passing clouds.8 mph100%30.04 "HgN/A
10:50 PM37 °FLight rain. Passing clouds.10 mph100%30.04 "HgN/A
10:20 PM37 °FPassing clouds.9 mph100%30.04 "HgN/A
9:50 PM37 °FPartly cloudy.8 mph93%30.01 "HgN/A
9:20 PM37 °FPartly cloudy.9 mph93%30.01 "HgN/A
8:50 PM37 °FPartly cloudy.8 mph93%30.01 "HgN/A
8:20 PM37 °FPassing clouds.9 mph93%29.98 "HgN/A
7:50 PM39 °FClear.9 mph87%29.98 "Hg10 mi
7:20 PM39 °FClear.9 mph87%29.98 "Hg10 mi
6:50 PM39 °FClear.10 mph81%29.95 "Hg10 mi
6:20 PM41 °FClear.6 mph66%29.95 "Hg10 mi
5:50 PM41 °FClear.7 mph66%29.92 "Hg10 mi
5:20 PM43 °FSunny.5 mph61%29.92 "Hg10 mi
Weather by CustomWeather, © 2015

See weather overviewHow to use our weather pages